����,���ϕ���(m/s),���ϕ���,�ő�u�ԕ���(m/s),�ő啗��������,�C��(��),���x(%),10���Ԉړ��ώZ�J��(mm),1���Ԉړ��ώZ�J��(mm),���J��(mm),�݌v�J��(mm),����(���ώZ)(MJ/m2),����(���ώZ)(min),���n�C��(hPa),�C�ʋC��(hPa)
2019-06-17T00:00:00+09:00,,,,,,,,,,,,,,
2019-06-17T00:01:00+09:00,2.6,�k�k��,5.8,�k�k��,15.9,89.7,0,0,0,0,0,0,997.4,1011.1
2019-06-17T00:02:00+09:00,2.6,�k,5.8,�k�k��,16,90,0,0,0,0,0,0,997.4,1011.1
2019-06-17T00:03:00+09:00,2.7,�k,5.8,�k�k��,15.9,89.1,0,0,0,0,0,0,997.4,1011.1
2019-06-17T00:04:00+09:00,2.7,�k,5.8,�k�k��,16,89.2,0,0,0,0,0,0,997.4,1011.1
2019-06-17T00:05:00+09:00,2.7,�k,5.8,�k�k��,15.9,88.6,0,0,0,0,0,0,997.4,1011.1
2019-06-17T00:06:00+09:00,2.6,�k,5.8,�k�k��,16,88.9,0,0,0,0,0,0,997.4,1011.1
2019-06-17T00:07:00+09:00,2.4,�k,5.9,�k,16,88.6,0,0,0,0,0,0,997.3,1011
2019-06-17T00:08:00+09:00,2.5,�k,5.9,�k,15.9,88.4,0,0,0,0,0,0,997.3,1011
2019-06-17T00:09:00+09:00,2.7,�k,5.9,�k,16.1,89.3,0,0,0,0,0,0,997.3,1011
2019-06-17T00:10:00+09:00,3,�k,5.9,�k,16.2,89.8,0,0,0,0,0,0,997.3,1011
2019-06-17T00:11:00+09:00,,,,,,,,,,,,,,
2019-06-17T00:12:00+09:00,,�k�k��,,�k,,,,,,,,,,
2019-06-17T00:13:00+09:00,3.6,�k�k��,5.9,�k,16.2,88.8,0,0,0,0,0,0,997.4,1011.1
2019-06-17T00:14:00+09:00,3.6,�k�k��,5.9,�k,16.2,88.8,0,0,0,0,0,0,997.4,1011.1
2019-06-17T00:15:00+09:00,3.6,�k�k��,5.9,�k,16.3,88.9,0,0,0,0,0,0,997.4,1011.1
2019-06-17T00:16:00+09:00,3.7,�k�k��,5.9,�k,16.2,88,0,0,0,0,0,0,997.4,1011.1
2019-06-17T00:17:00+09:00,3.8,�k�k��,5.8,�k�k��,16.3,87.9,0,0,0,0,0,0,997.5,1011.2
2019-06-17T00:18:00+09:00,3.7,�k�k��,5.8,�k�k��,16.3,87.9,0,0,0,0,0,0,997.5,1011.2
2019-06-17T00:19:00+09:00,3.6,�k�k��,5.7,�k,16.4,88.1,0,0,0,0,0,0,997.5,1011.2
2019-06-17T00:20:00+09:00,3.4,�k�k��,5.5,�k�k��,16.4,87.9,0,0,0,0,0,0,997.5,1011.2
2019-06-17T00:21:00+09:00,3.3,�k�k��,5.5,�k�k��,16.2,87.4,0,0,0,0,0,0,997.5,1011.2
2019-06-17T00:22:00+09:00,3.1,�k�k��,4.4,�k,16.2,87.6,0,0,0,0,0,0,997.5,1011.2
2019-06-17T00:23:00+09:00,2.9,�k�k��,4.4,�k,16.2,87.8,0,0,0,0,0,0,997.4,1011.1
2019-06-17T00:24:00+09:00,2.9,�k�k��,4.4,�k,16.4,88.4,0,0,0,0,0,0,997.3,1011
2019-06-17T00:25:00+09:00,2.8,�k�k��,4.4,�k,16.2,87.7,0,0,0,0,0,0,997.3,1011
2019-06-17T00:26:00+09:00,2.8,�k�k��,4.3,�k�k��,16.2,87.8,0,0,0,0,0,0,997.3,1011
2019-06-17T00:27:00+09:00,2.9,�k�k��,4.4,�k�k��,16.3,87.8,0,0,0,0,0,0,997.3,1011
2019-06-17T00:28:00+09:00,2.9,�k�k��,4.4,�k�k��,16.3,86.9,0,0,0,0,0,0,997.3,1011
2019-06-17T00:29:00+09:00,2.9,�k�k��,4.4,�k�k��,16.1,85.9,0,0,0,0,0,0,997.3,1011
2019-06-17T00:30:00+09:00,3,�k�k��,4.4,�k�k��,16.1,86.6,0,0,0,0,0,0,997.3,1011
2019-06-17T00:31:00+09:00,3,�k�k��,4.4,�k�k��,16.1,87.4,0,0,0,0,0,0,997.4,1011.1
2019-06-17T00:32:00+09:00,3,�k�k��,4.4,�k�k��,16.2,87.5,0,0,0,0,0,0,997.4,1011.1
2019-06-17T00:33:00+09:00,3.2,�k�k��,4.4,�k�k��,16.3,87.5,0,0,0,0,0,0,997.4,1011.1
2019-06-17T00:34:00+09:00,3.2,�k�k��,4.7,�k�k��,16.4,87.2,0,0,0,0,0,0,997.4,1011.1
2019-06-17T00:35:00+09:00,3.2,�k�k��,4.7,�k�k��,16.4,86.7,0,0,0,0,0,0,997.4,1011.1
2019-06-17T00:36:00+09:00,3.2,�k�k��,4.7,�k�k��,16.3,86.1,0,0,0,0,0,0,997.4,1011.1
2019-06-17T00:37:00+09:00,3.2,�k�k��,4.7,�k�k��,16.4,86,0,0,0,0,0,0,997.4,1011.1
2019-06-17T00:38:00+09:00,3.1,�k�k��,4.7,�k�k��,16.4,86.2,0,0,0,0,0,0,997.4,1011.1
2019-06-17T00:39:00+09:00,3.1,�k�k��,4.8,�k�k��,16.4,85.9,0,0,0,0,0,0,997.3,1011
2019-06-17T00:40:00+09:00,3.2,�k�k��,4.9,�k�k��,16.5,85.1,0,0,0,0,0,0,997.3,1011
2019-06-17T00:41:00+09:00,3.3,�k�k��,4.9,�k�k��,16.5,84.5,0,0,0,0,0,0,997.3,1011
2019-06-17T00:42:00+09:00,3.3,�k�k��,4.9,�k�k��,16.5,84,0,0,0,0,0,0,997.2,1010.9
2019-06-17T00:43:00+09:00,,,,,,,,,,,,,,
2019-06-17T00:44:00+09:00,3.3,�k�k��,5,�k,16.4,83.2,0,0,0,0,0,0,997.3,1011
2019-06-17T00:45:00+09:00,3.2,�k�k��,5,�k,16.3,83.6,0,0,0,0,0,0,997.3,1011
2019-06-17T00:46:00+09:00,3.2,�k�k��,5,�k,16.3,84.1,0,0,0,0,0,0,997.2,1010.9
2019-06-17T00:47:00+09:00,3.2,�k�k��,5,�k,16.2,84.6,0,0,0,0,0,0,997.2,1010.9
2019-06-17T00:48:00+09:00,3.2,�k�k��,5,�k,16.2,84.9,0,0,0,0,0,0,997.2,1010.9
2019-06-17T00:49:00+09:00,3.1,�k�k��,5,�k,16.2,85.7,0,0,0,0,0,0,997.2,1010.9
2019-06-17T00:50:00+09:00,3.1,�k�k��,,�k,,,,,,,,,997.2,
2019-06-17T00:51:00+09:00,3.1,�k�k��,5,�k,,,0,0,,0,,,997.2,
2019-06-17T00:52:00+09:00,,,,,,,,,,,,,,
2019-06-17T00:53:00+09:00,3.2,�k�k��,5.8,�k�k��,16.4,85.6,0,0,0,0,0,0,997.2,1010.9
2019-06-17T00:54:00+09:00,3.3,�k�k��,5.8,�k�k��,16.4,85.2,0,0,0,0,0,0,997.2,1010.9
2019-06-17T00:55:00+09:00,,,,,,,,,,,,,,
2019-06-17T00:56:00+09:00,3.4,�k�k��,5.8,�k�k��,16.3,84.3,0,0,0,0,0,0,997.2,1010.9
2019-06-17T00:57:00+09:00,3.5,�k�k��,5.8,�k�k��,16.3,84.6,0,0,0,0,0,0,997.2,1010.9
2019-06-17T00:58:00+09:00,3.5,�k�k��,5.8,�k�k��,16.5,85,0,0,0,0,0,0,997.2,1010.9
2019-06-17T00:59:00+09:00,3.5,�k�k��,5.8,�k�k��,16.5,84.1,0,0,0,0,0,0,997.2,1010.9
2019-06-17T01:00:00+09:00,3.3,�k�k��,5.8,�k�k��,16.4,84.6,0,0,0,0,0,0,997.2,1010.9
2019-06-17T01:01:00+09:00,3.1,�k�k��,5.8,�k�k��,16.4,83.8,0,0,0,0,0,0,997.2,1010.9
2019-06-17T01:02:00+09:00,3.1,�k�k��,5.8,�k�k��,16.4,84.4,0,0,0,0,0,0,997.2,1010.9
2019-06-17T01:03:00+09:00,3,�k�k��,5.1,�k,16.4,84.5,0,0,0,0,0,0,997.2,1010.9
2019-06-17T01:04:00+09:00,2.9,�k�k��,5.1,�k,16.5,83.9,0,0,0,0,0,0,997.3,1011
2019-06-17T01:05:00+09:00,2.9,�k�k��,5.1,�k,16.4,83.1,0,0,0,0,0,0,997.3,1011
2019-06-17T01:06:00+09:00,2.7,�k,5.1,�k,16.4,83.5,0,0,0,0,0,0,997.3,1011
2019-06-17T01:07:00+09:00,2.6,�k,4.8,�k�k��,16.5,84.3,0,0,0,0,0,0,997.3,1011
2019-06-17T01:08:00+09:00,2.4,�k,4.8,�k�k��,16.4,83.9,0,0,0,0,0,0,997.3,1011
2019-06-17T01:09:00+09:00,2.3,�k,4.8,�k�k��,16.5,84.6,0,0,0,0,0,0,997.3,1011
2019-06-17T01:10:00+09:00,2.2,�k,4.8,�k�k��,16.4,84,0,0,0,0,0,0,997.3,1011
2019-06-17T01:11:00+09:00,2.2,�k,4.8,�k�k��,16.4,84.2,0,0,0,0,0,0,997.2,1010.9
2019-06-17T01:12:00+09:00,2,�k,4.4,�k�k��,16.4,84.2,0,0,0,0,0,0,997.2,1010.9
2019-06-17T01:13:00+09:00,1.8,�k,4.4,�k�k��,16.4,84.4,0,0,0,0,0,0,997.2,1010.9
2019-06-17T01:14:00+09:00,1.7,�k,4.3,�k�k��,16.3,84,0,0,0,0,0,0,997.2,1010.9
2019-06-17T01:15:00+09:00,1.6,�k,4,�k,16.3,84,0,0,0,0,0,0,997.2,1010.9
2019-06-17T01:16:00+09:00,1.5,�k,3.6,�k,16.2,84,0,0,0,0,0,0,997.3,1011
2019-06-17T01:17:00+09:00,1.4,�k,3.1,�k,16.1,84,0,0,0,0,0,0,997.3,1011
2019-06-17T01:18:00+09:00,1.3,�k�k��,2.9,�k,16.1,84.6,0,0,0,0,0,0,997.3,1011
2019-06-17T01:19:00+09:00,1.3,�k�k��,2.7,�k��,16.1,85.2,0,0,0,0,0,0,997.3,1011
2019-06-17T01:20:00+09:00,1.3,�k�k��,2.7,�k��,16.1,85.3,0,0,0,0,0,0,997.3,1011
2019-06-17T01:21:00+09:00,1.3,�k�k��,2.7,�k��,16.1,85.4,0,0,0,0,0,0,997.3,1011
2019-06-17T01:22:00+09:00,1.2,�k�k��,2.7,�k��,16.1,85.6,0,0,0,0,0,0,997.3,1011
2019-06-17T01:23:00+09:00,1.2,�k�k��,2.7,�k��,16.1,85.8,0,0,0,0,0,0,997.3,1011
2019-06-17T01:24:00+09:00,1.1,�k�k��,2.7,�k��,16.2,85.9,0,0,0,0,0,0,997.4,1011.1
2019-06-17T01:25:00+09:00,1.1,�k�k��,2.7,�k��,16.2,85.8,0,0,0,0,0,0,997.4,1011.1
2019-06-17T01:26:00+09:00,1.1,�k�k��,2.4,�k��,16.3,85.8,0,0,0,0,0,0,997.4,1011.1
2019-06-17T01:27:00+09:00,1.1,�k�k��,2.4,�k��,16.5,86,0,0,0,0,0,0,997.4,1011.1
2019-06-17T01:28:00+09:00,1.1,�k�k��,,�k,,,,,,,,,997.4,
2019-06-17T01:29:00+09:00,1.2,�k,3.2,�k,16.5,84.8,0,0,0,0,0,0,997.3,1011
2019-06-17T01:30:00+09:00,1.3,�k,3.5,�k,16.5,84.7,0,0,0,0,0,0,997.3,1011
2019-06-17T01:31:00+09:00,1.4,�k,3.5,�k,16.4,83.6,0,0,0,0,0,0,997.3,1011
2019-06-17T01:32:00+09:00,1.5,�k,3.5,�k,16.4,83.7,0,0,0,0,0,0,997.4,1011.1
2019-06-17T01:33:00+09:00,1.6,�k,3.5,�k,16.5,83.7,0,0,0,0,0,0,997.4,1011.1
2019-06-17T01:34:00+09:00,1.7,�k,3.5,�k,16.4,83.6,0,0,0,0,0,0,997.4,1011.1
2019-06-17T01:35:00+09:00,1.8,�k,3.5,�k,16.4,83.7,0,0,0,0,0,0,997.4,1011.1
2019-06-17T01:36:00+09:00,1.9,�k,3.9,�k,16.3,83.5,0,0,0,0,0,0,997.3,1011
2019-06-17T01:37:00+09:00,2,�k,4.2,�k�k��,,,0,,0,0,,,997.3,
2019-06-17T01:38:00+09:00,2,�k,4.2,�k�k��,16.3,84.5,0,0,0,0,0,0,997.3,1011
2019-06-17T01:39:00+09:00,,,,,,,,,,,,,,
2019-06-17T01:40:00+09:00,2.3,�k,5,�k,16.4,85,0,0,0,0,0,0,997.3,1011
2019-06-17T01:41:00+09:00,2.3,�k,5,�k,16.5,84.7,0,0,0,0,0,0,997.3,1011
2019-06-17T01:42:00+09:00,2.2,�k,5,�k,,83.7,0,0,0,0,,0,997.3,1011
2019-06-17T01:43:00+09:00,2.2,�k,5,�k,16.3,83.6,0,0,0,0,0,0,997.3,1011
2019-06-17T01:44:00+09:00,2.1,�k,5,�k,16.3,83.9,0,0,0,0,0,0,997.3,1011
2019-06-17T01:45:00+09:00,2,�k,5,�k,16.4,84,0,0,0,0,0,0,997.3,1011
2019-06-17T01:46:00+09:00,1.9,�k,5,�k,16.3,83.9,0,0,0,0,0,0,997.3,1011
2019-06-17T01:47:00+09:00,1.8,�k,5,�k,16.2,83.9,0,0,0,0,0,0,997.3,1011
2019-06-17T01:48:00+09:00,1.8,�k,5,�k,16.2,83.9,0,0,0,0,0,0,997.3,1011
2019-06-17T01:49:00+09:00,1.6,�k,4.9,�k�k��,16.2,84.1,0,0,0,0,0,0,997.3,1011
2019-06-17T01:50:00+09:00,1.4,�k�k��,3.9,�k�k��,16.1,84.2,0,0,0,0,0,0,997.3,1011
2019-06-17T01:51:00+09:00,1.4,�k�k��,3.3,�k�k��,16.1,84.5,0,0,0,0,0,0,997.3,1011
2019-06-17T01:52:00+09:00,1.5,�k�k��,3.4,�k��,16.1,84.6,0,0,0,0,0,0,997.3,1011
2019-06-17T01:53:00+09:00,1.5,�k�k��,3.4,�k��,16.1,84.5,0,0,0,0,0,0,997.3,1011
2019-06-17T01:54:00+09:00,1.6,�k�k��,3.4,�k��,16.2,84.2,0,0,0,0,0,0,997.4,1011.1
2019-06-17T01:55:00+09:00,1.7,�k�k��,3.4,�k��,16.2,84.2,0,0,0,0,0,0,997.3,1011
2019-06-17T01:56:00+09:00,1.6,�k�k��,3.4,�k��,16.3,83.9,0,0,0,0,0,0,997.3,1011
2019-06-17T01:57:00+09:00,1.6,�k�k��,3.4,�k��,16.3,83.7,0,0,0,0,0,0,997.3,1011
2019-06-17T01:58:00+09:00,1.7,�k�k��,3.8,�k�k��,16.3,83.9,0,0,0,0,0,0,997.3,1011
2019-06-17T01:59:00+09:00,1.8,�k�k��,4.2,�k�k��,16.4,84.1,0,0,0,0,0,0,997.3,1011
2019-06-17T02:00:00+09:00,1.9,�k�k��,4.2,�k�k��,16.5,84.2,0,0,0,0,0,0,997.3,1011
2019-06-17T02:01:00+09:00,1.9,�k,4.2,�k�k��,16.4,84.1,0,0,0,0,0,0,997.3,1011
2019-06-17T02:02:00+09:00,1.8,�k,4.2,�k�k��,16.4,83.9,0,0,0,0,0,0,997.3,1011
2019-06-17T02:03:00+09:00,1.8,�k,4.2,�k�k��,16.4,83.6,0,0,0,0,0,0,997.4,1011.1
2019-06-17T02:04:00+09:00,1.8,�k,4.2,�k�k��,16.3,83.5,0,0,0,0,0,0,997.4,1011.1
2019-06-17T02:05:00+09:00,1.7,�k,4.2,�k�k��,16.5,83.8,0,0,0,0,0,0,997.4,1011.1
2019-06-17T02:06:00+09:00,1.7,�k,4.2,�k�k��,16.4,83.7,0,0,0,0,0,0,997.5,1011.2
2019-06-17T02:07:00+09:00,1.8,�k,4.2,�k�k��,16.4,83.9,0,0,0,0,0,0,997.5,1011.2
2019-06-17T02:08:00+09:00,1.8,�k,4.2,�k�k��,16.4,83.9,0,0,0,0,0,0,997.5,1011.2
2019-06-17T02:09:00+09:00,1.7,�k,4.1,�k�k��,16.5,83.8,0,0,0,0,0,0,997.5,1011.2
2019-06-17T02:10:00+09:00,1.7,�k,4.1,�k�k��,16.5,83.4,0,0,0,0,0,0,997.4,1011.1
2019-06-17T02:11:00+09:00,1.7,�k,4.5,�k�k��,16.5,82.3,0,0,0,0,0,0,997.5,1011.2
2019-06-17T02:12:00+09:00,,,,,,,,,,,,,,
2019-06-17T02:13:00+09:00,1.9,�k,4.5,�k�k��,16.8,81.7,0,0,0,0,0,0,997.5,1011.2
2019-06-17T02:14:00+09:00,2,�k,4.5,�k�k��,16.7,81.8,0,0,0,0,0,0,997.5,1011.2
2019-06-17T02:15:00+09:00,2,�k�k��,4.5,�k�k��,16.6,82.4,0,0,0,0,0,0,997.5,1011.2
2019-06-17T02:16:00+09:00,2,�k�k��,4.5,�k�k��,16.4,83.4,0,0,0,0,0,0,997.5,1011.2
2019-06-17T02:17:00+09:00,2.1,�k�k��,4.5,�k�k��,16.3,84.8,0,0,0,0,0,0,997.5,1011.2
2019-06-17T02:18:00+09:00,2.1,�k�k��,4.5,�k�k��,16.2,85.5,0,0,0,0,0,0,997.5,1011.2
2019-06-17T02:19:00+09:00,2.2,�k�k��,4.5,�k�k��,16.1,86.5,0,0,0,0,0,0,997.5,1011.2
2019-06-17T02:20:00+09:00,2.3,�k�k��,4.5,�k�k��,16.2,86.7,0,0,0,0,0,0,997.5,1011.2
2019-06-17T02:21:00+09:00,2.3,�k�k��,4.1,�k�k��,16.1,86.4,0,0,0,0,0,0,997.5,1011.2
2019-06-17T02:22:00+09:00,,,,,,,,,,,,,,
2019-06-17T02:23:00+09:00,2.3,�k�k��,4.1,�k�k��,16.3,85.9,0,0,0,0,0,0,997.5,1011.2
2019-06-17T02:24:00+09:00,2.3,�k�k��,4.1,�k�k��,16.2,85.4,0,0,0,0,0,0,997.5,1011.2
2019-06-17T02:25:00+09:00,2.3,�k�k��,4.1,�k�k��,,,0,0,0,0,,,997.5,1011.2
2019-06-17T02:26:00+09:00,,,,,,,,,,,,,,
2019-06-17T02:27:00+09:00,2.1,�k,4.1,�k�k��,16.3,84.4,0,0,0,0,0,0,997.5,1011.2
2019-06-17T02:28:00+09:00,2,�k,4.1,�k�k��,16.2,84.4,0,0,0,0,0,0,997.5,1011.2
2019-06-17T02:29:00+09:00,1.9,�k,4,�k�k��,16.5,84.6,0,0,0,0,0,0,997.5,1011.2
2019-06-17T02:30:00+09:00,1.7,�k,3.9,�k�k��,16.4,84.3,0,0,0,0,0,0,997.5,1011.2
2019-06-17T02:31:00+09:00,1.6,�k,3.4,�k,16.4,84.2,0,0,0,0,0,0,997.6,1011.3
2019-06-17T02:32:00+09:00,1.6,�k,3.4,�k,16.3,84.6,0,0,0,0,0,0,997.5,1011.2
2019-06-17T02:33:00+09:00,1.5,�k�k��,3.4,�k,16.3,85.2,0,0,0,0,0,0,997.6,1011.3
2019-06-17T02:34:00+09:00,1.5,�k�k��,2.9,�k��,16.2,85.6,0,0,0,0,0,0,997.6,1011.3
2019-06-17T02:35:00+09:00,1.5,�k�k��,2.9,�k��,16.2,86.5,0,0,0,0,0,0,997.6,1011.3
2019-06-17T02:36:00+09:00,1.6,�k��,2.9,�k��,16.1,86.5,0,0,0,0,0,0,997.6,1011.3
2019-06-17T02:37:00+09:00,1.7,�k��,2.9,�k��,16.1,87.2,0,0,0,0,0,0,997.7,1011.4
2019-06-17T02:38:00+09:00,1.7,�k��,2.9,�k��,16.1,87.4,0,0,0,0,0,0,997.7,1011.4
2019-06-17T02:39:00+09:00,1.7,�k��,2.9,�k��,16,87.3,0,0,0,0,0,0,997.8,1011.5
2019-06-17T02:40:00+09:00,1.7,�k��,2.9,�k��,16.1,87.8,0,0,0,0,0,0,997.8,1011.5
2019-06-17T02:41:00+09:00,1.8,���k��,2.9,�k��,16.2,88,0,0,0,0,0,0,997.8,1011.5
2019-06-17T02:42:00+09:00,1.7,���k��,2.7,�k��,16.2,87.6,0,0,0,0,0,0,997.8,1011.5
2019-06-17T02:43:00+09:00,1.8,���k��,2.7,�k��,16.1,87.4,0,0,0,0,0,0,997.8,1011.5
2019-06-17T02:44:00+09:00,1.7,���k��,2.6,���k��,16.2,87.4,0,0,0,0,0,0,997.9,1011.6
2019-06-17T02:45:00+09:00,1.7,���k��,2.6,���k��,16.2,87.3,0,0,0,0,0,0,997.9,1011.6
2019-06-17T02:46:00+09:00,1.7,���k��,2.6,���k��,16.2,87.3,0,0,0,0,0,0,997.9,1011.6
2019-06-17T02:47:00+09:00,1.6,���k��,2.6,���k��,16.1,86.8,0,0,0,0,0,0,997.9,1011.6
2019-06-17T02:48:00+09:00,1.7,���k��,3.1,�k��,16.2,87.1,0,0,0,0,0,0,997.9,1011.6
2019-06-17T02:49:00+09:00,1.7,���k��,3.1,�k��,16.1,87.2,0,0,0,0,0,0,997.9,1011.6
2019-06-17T02:50:00+09:00,1.7,���k��,3.1,�k��,16.2,87.2,0,0,0,0,0,0,997.9,1011.6
2019-06-17T02:51:00+09:00,1.7,�k��,3.1,�k��,16.2,86.8,0,0,0,0,0,0,997.9,1011.6
2019-06-17T02:52:00+09:00,1.7,�k��,3.1,�k��,16.2,86.5,0,0,0,0,0,0,997.9,1011.6
2019-06-17T02:53:00+09:00,1.7,�k��,3.1,�k��,16.3,86.2,0,0,0,0,0,0,998,1011.7
2019-06-17T02:54:00+09:00,1.8,�k��,3.1,�k��,16.3,85.5,0,0,0,0,0,0,998,1011.7
2019-06-17T02:55:00+09:00,1.8,�k��,3.1,�k��,16.4,85.1,0,0,0,0,0,0,998,1011.7
2019-06-17T02:56:00+09:00,1.8,�k��,3.1,�k��,16.4,85,0,0,0,0,0,0,998,1011.7
2019-06-17T02:57:00+09:00,,,,,,,,,,,,,,
2019-06-17T02:58:00+09:00,1.7,�k��,3.1,�k��,16.4,86.3,0,0,0,0,0,0,998.1,1011.8
2019-06-17T02:59:00+09:00,1.6,�k��,3.1,�k��,16.3,86.8,0,0,0,0,0,0,998.1,1011.8
2019-06-17T03:00:00+09:00,1.6,�k��,3.1,�k��,16.2,87.2,0,0,0,0,0,0,998.2,1011.9
2019-06-17T03:01:00+09:00,1.5,�k�k��,3.1,�k��,16.2,87.3,0,0,0,0,0,0,998.2,1011.9
2019-06-17T03:02:00+09:00,1.5,�k�k��,2.5,�k��,16.2,88.1,0,0,0,0,0,0,998.2,1011.9
2019-06-17T03:03:00+09:00,1.4,�k�k��,2.5,�k��,16.2,88.1,0,0,0,0,0,0,998.3,1012
2019-06-17T03:04:00+09:00,1.3,�k�k��,2.3,�k�k��,16.1,88.3,0,0,0,0,0,0,998.3,1012
2019-06-17T03:05:00+09:00,1.1,�k�k��,2.3,�k�k��,15.9,88.5,0,0,0,0,0,0,998.3,1012.1
2019-06-17T03:06:00+09:00,1.1,�k�k��,2.3,�k�k��,15.9,89.2,0,0,0,0,0,0,998.2,1012
2019-06-17T03:07:00+09:00,,,,,,,,,,,,,,
2019-06-17T03:08:00+09:00,1.1,�k�k��,2.3,�k�k��,,,0,,0,0,,,998.3,
2019-06-17T03:09:00+09:00,1,�k�k��,2.3,�k�k��,16,90,0,0,0,0,0,0,998.3,1012
2019-06-17T03:10:00+09:00,0.9,�k�k��,2.3,�k��,16.1,89.8,0,0,0,0,0,0,998.3,1012
2019-06-17T03:11:00+09:00,0.8,�k�k��,2.3,�k��,16,89.2,0,0,0,0,0,0,998.3,1012
2019-06-17T03:12:00+09:00,0.7,�k�k��,2.3,�k��,16.1,89.1,0,0,0,0,0,0,998.4,1012.1
2019-06-17T03:13:00+09:00,0.7,�k�k��,2.3,�k��,16,89.2,0,0,0,0,0,0,998.3,1012
2019-06-17T03:14:00+09:00,0.7,�k,2.3,�k��,16.1,89.7,0,0,0,0,0,0,998.4,1012.1
2019-06-17T03:15:00+09:00,0.8,�k,2.3,�k��,16.2,89.3,0,0,0,0,0,0,998.3,1012
2019-06-17T03:16:00+09:00,0.7,�k,2.3,�k��,16.1,89,0,0,0,0,0,0,998.3,1012
2019-06-17T03:17:00+09:00,0.8,�k�k��,2.3,�k��,16.2,89,0,0,0,0,0,0,998.4,1012.1
2019-06-17T03:18:00+09:00,0.7,�k�k��,1.6,�k�k��,16.2,88.7,0,0,0,0,0,0,998.4,1012.1
2019-06-17T03:19:00+09:00,0.7,�k�k��,2.3,���k��,16.1,88.6,0,0,0,0,0,0,998.4,1012.1
2019-06-17T03:20:00+09:00,0.8,�k�k��,2.3,���k��,16.2,88.2,0,0,0,0,0,0,998.5,1012.2
2019-06-17T03:21:00+09:00,1,�k�k��,2.3,���k��,16.2,88.5,0,0,0,0,0,0,998.5,1012.2
2019-06-17T03:22:00+09:00,1,�k�k��,2.3,���k��,16.1,88.4,0,0,0,0,0,0,998.5,1012.2
2019-06-17T03:23:00+09:00,1.1,�k�k��,2.3,���k��,16.1,88.6,0,0,0,0,0,0,998.5,1012.2
2019-06-17T03:24:00+09:00,1.1,�k��,2.3,���k��,16.1,88.8,0,0,0,0,0,0,998.5,1012.2
2019-06-17T03:25:00+09:00,1.2,�k��,2.3,���k��,16.2,88.9,0,0,0,0,0,0,998.5,1012.2
2019-06-17T03:26:00+09:00,1.2,�k��,2.3,���k��,16.2,89,0,0,0,0,0,0,998.5,1012.2
2019-06-17T03:27:00+09:00,1.2,�k��,2.3,���k��,16,88.7,0,0,0,0,0,0,998.6,1012.4
2019-06-17T03:28:00+09:00,1.3,�k��,2.3,���k��,15.9,88.9,0,0,0,0,0,0,998.6,1012.4
2019-06-17T03:29:00+09:00,1.3,�k��,2.3,�k��,15.8,89.3,0,0,0,0,0,0,998.6,1012.4
2019-06-17T03:30:00+09:00,1.2,�k��,2.3,�k��,15.8,89.9,0,0,0,0,0,0,998.6,1012.4
2019-06-17T03:31:00+09:00,1.2,�k��,2.3,�k��,15.8,90.4,0,0,0,0,0,0,998.7,1012.5
2019-06-17T03:32:00+09:00,1.2,�k�k��,2.8,�k�k��,15.8,90.2,0,0,0,0,0,0,998.7,1012.5
2019-06-17T03:33:00+09:00,1.3,�k�k��,2.8,�k�k��,15.9,90.8,0,0,0,0,0,0,998.7,1012.5
2019-06-17T03:34:00+09:00,1.3,�k�k��,2.8,�k�k��,16,91,0,0,0,0,0,0,998.7,1012.5
2019-06-17T03:35:00+09:00,1.3,�k,2.8,�k�k��,16.1,90.8,0,0,0,0,0,0,998.7,1012.4
2019-06-17T03:36:00+09:00,1.3,�k,2.8,�k�k��,16,90.2,0,0,0,0,0,0,998.7,1012.5
2019-06-17T03:37:00+09:00,1.3,�k,2.8,�k�k��,15.9,90.2,0,0,0,0,0,0,998.7,1012.5
2019-06-17T03:38:00+09:00,1.3,�k�k��,2.8,�k�k��,16,90.8,0,0,0,0,0,0,998.7,1012.5
2019-06-17T03:39:00+09:00,1.4,�k�k��,2.8,�k�k��,16.1,90.8,0,0,0,0,0,0,998.8,1012.6
2019-06-17T03:40:00+09:00,1.5,�k��,2.8,�k�k��,16.1,90.8,0,0,0,0,0,0,998.8,1012.6
2019-06-17T03:41:00+09:00,1.4,�k��,2.8,�k�k��,16.2,91.1,0,0,0,0,0,0,998.8,1012.5
2019-06-17T03:42:00+09:00,1.4,�k�k��,2.7,�k��,16.1,90.7,0,0,0,0,0,0,998.8,1012.6
2019-06-17T03:43:00+09:00,,,,,,,,,,,,,,
2019-06-17T03:44:00+09:00,1.1,�k�k��,2.4,�k��,16,91.1,0,0,0,0,0,0,998.9,1012.7
2019-06-17T03:45:00+09:00,1,�k�k��,2.4,�k��,15.9,91.1,0,0,0,0,0,0,998.9,1012.7
2019-06-17T03:46:00+09:00,1,�k�k��,2.4,�k��,15.9,91.5,0,0,0,0,0,0,998.9,1012.7
2019-06-17T03:47:00+09:00,0.9,�k�k��,2.2,�k��,16,92,0,0,0,0,0,0,998.9,1012.7
2019-06-17T03:48:00+09:00,0.8,�k�k��,2.1,�k��,16.1,92.1,0,0,0,0,0,0,998.9,1012.7
2019-06-17T03:49:00+09:00,0.8,�k�k��,2.8,�k�k��,16.1,91.8,0,0,0,0,0,0,998.9,1012.7
2019-06-17T03:50:00+09:00,0.8,�k�k��,2.8,�k�k��,16,91.8,0,0,0,0,0,0,998.9,1012.7
2019-06-17T03:51:00+09:00,0.9,�k�k��,2.8,�k�k��,16.1,92,0,0,0,0,0,0,998.9,1012.7
2019-06-17T03:52:00+09:00,1,�k�k��,2.8,�k�k��,16,91.9,0,0,0,0,0,0,998.9,1012.7
2019-06-17T03:53:00+09:00,1.1,�k�k��,2.8,�k�k��,16.1,92,0,0,0,0,0,0,998.9,1012.7
2019-06-17T03:54:00+09:00,1.2,�k�k��,,�k�k��,16.2,,0,,,0,,,998.9,
2019-06-17T03:55:00+09:00,,,,,,,,,,,,,,
2019-06-17T03:56:00+09:00,1.6,�k�k��,3.1,�k�k��,16.2,91,0,0,0,0,0,0,998.9,1012.6
2019-06-17T03:57:00+09:00,1.7,�k�k��,3.2,�k�k��,16.1,90.7,0,0,0,0,0,0,999,1012.8
2019-06-17T03:58:00+09:00,2,�k�k��,3.7,�k�k��,16,90.7,0,0,0,0,0,0,999,1012.8
2019-06-17T03:59:00+09:00,2.1,�k�k��,3.7,�k�k��,16,90.5,0,0,0,0,0,0,999,1012.8
2019-06-17T04:00:00+09:00,2.2,�k�k��,3.7,�k�k��,16.1,90.8,0,0,0,0,0,0,999,1012.8
2019-06-17T04:01:00+09:00,2.2,�k�k��,3.7,�k�k��,16,90.4,0,0,0,0,0,0,999.1,1012.9
2019-06-17T04:02:00+09:00,2.3,�k�k��,3.7,�k�k��,16,90.3,0,0,0,0,0,0,999.1,1012.9
2019-06-17T04:03:00+09:00,2.3,�k�k��,3.7,�k�k��,16,90.3,0,0,0,0,0,0,999.1,1012.9
2019-06-17T04:04:00+09:00,2.3,�k�k��,3.7,�k�k��,16.1,90.5,0,0,0,0,0,0,999.1,1012.9
2019-06-17T04:05:00+09:00,2.3,�k�k��,3.7,�k�k��,16.3,90.5,0,0,0,0,0,0,999.1,1012.8
2019-06-17T04:06:00+09:00,2.2,�k�k��,3.7,�k�k��,16.2,89.7,0,0,0,0,0,0,999.2,1013
2019-06-17T04:07:00+09:00,2.2,�k��,3.7,�k�k��,16.2,89.6,0,0,0,0,0,0,999.2,1013
2019-06-17T04:08:00+09:00,2.1,�k��,3.7,�k��,16.2,89.8,0,0,0,0,0,0,999.2,1013
2019-06-17T04:09:00+09:00,2,�k��,3.1,�k�k��,16.2,90,0,0,0,0,0,0,999.3,1013.1
2019-06-17T04:10:00+09:00,1.9,�k��,3,�k�k��,16.1,89.7,0,0,0,0,0,0,999.3,1013.1
2019-06-17T04:11:00+09:00,1.8,�k��,2.9,�k�k��,16.1,89.9,0,0,0,0,0,0,999.3,1013.1
2019-06-17T04:12:00+09:00,1.8,�k��,2.7,�k��,16.1,90.4,0,0,0,0,0,0,999.3,1013.1
2019-06-17T04:13:00+09:00,1.7,�k��,2.7,�k��,16.2,90.7,0,0,0,0,0,0,999.3,1013.1
2019-06-17T04:14:00+09:00,1.8,�k��,2.7,�k��,16.2,90.4,0,0,0,0,0,0,999.3,1013.1
2019-06-17T04:15:00+09:00,1.8,�k��,3,�k��,16.1,90.2,0,0,0,0,0,0,999.3,1013.1
2019-06-17T04:16:00+09:00,1.8,�k��,3,�k��,16.1,90.4,0,0,0,0,0,0,999.3,1013.1
2019-06-17T04:17:00+09:00,1.8,�k��,3,�k��,16.2,90.6,0,0,0,0,0,0,999.3,1013.1
2019-06-17T04:18:00+09:00,1.9,�k��,3,�k��,16.3,90.6,0,0,0,0,0,0,999.3,1013
2019-06-17T04:19:00+09:00,2,�k��,3,�k��,16.2,90.4,0,0,0,0,0,0,999.3,1013.1
2019-06-17T04:20:00+09:00,1.9,�k��,3,�k��,16.1,90.4,0,0,0,0,0,0,999.3,1013.1
2019-06-17T04:21:00+09:00,2,�k��,3,�k��,16.2,90.6,0,0,0,0,0,0,999.3,1013.1
2019-06-17T04:22:00+09:00,2.1,�k��,3.3,�k��,16.1,90.8,0,0,0,0,0,0,999.3,1013.1
2019-06-17T04:23:00+09:00,2.1,�k��,3.3,�k��,16,90.7,0,0,0,0,0,0,999.3,1013.1
2019-06-17T04:24:00+09:00,2.1,�k��,3.3,�k��,16.1,91.3,0,0,0,0,0,0,999.3,1013.1
2019-06-17T04:25:00+09:00,2,�k��,3.3,�k��,16.1,91,0,0,0,0,0,0,999.3,1013.1
2019-06-17T04:26:00+09:00,2,�k��,3.3,�k��,16.1,91,0,0,0,0,0,0,999.3,1013.1
2019-06-17T04:27:00+09:00,2,�k��,3.3,�k��,16,90.9,0,0,0,0,0,0,999.3,1013.1
2019-06-17T04:28:00+09:00,2,�k��,3.3,�k��,16.1,90.7,0,0,0,0,0,0,999.2,1013
2019-06-17T04:29:00+09:00,1.9,�k��,3.3,�k��,16.2,90.2,0,0,0,0,0,0,999.3,1013.1
2019-06-17T04:30:00+09:00,2,�k��,3.3,�k��,16.1,89.8,0,0,0,0,0,0,999.3,1013.1
2019-06-17T04:31:00+09:00,,,,,,,,,,,,,,
2019-06-17T04:32:00+09:00,1.9,�k��,2.8,�k��,16.1,90,0,0,0,0,0,0,999.2,1013
2019-06-17T04:33:00+09:00,1.9,�k��,2.8,�k��,16,89.7,0,0,0,0,0,0,999.3,1013.1
2019-06-17T04:34:00+09:00,2,�k��,2.8,�k��,16,89.9,0,0,0,0,0,0,999.3,1013.1
2019-06-17T04:35:00+09:00,2.1,�k��,2.9,�k��,16,90,0,0,0,0,0,0,999.3,1013.1
2019-06-17T04:36:00+09:00,2.2,�k��,3,�k��,16.2,90.2,0,0,0,0,0,0,999.3,1013.1
2019-06-17T04:37:00+09:00,2.2,�k��,3,�k��,16.2,89.6,0,0,0,0,0,0,999.3,1013.1
2019-06-17T04:38:00+09:00,2.2,�k��,3,�k��,16.3,89.4,0,0,0,0,0,0,999.3,1013
2019-06-17T04:39:00+09:00,2.2,�k��,3,�k��,16.4,89,0,0,0,0,0,0,999.3,1013
2019-06-17T04:40:00+09:00,2.1,�k��,,�k��,16.5,,0,0,0,0,,0,999.3,
2019-06-17T04:41:00+09:00,2.1,�k��,3.3,�k,16.3,87.8,0,0,0,0,0,0,999.3,1013
2019-06-17T04:42:00+09:00,2.2,�k��,3.3,�k,16.3,87.8,0,0,0,0,0,0,999.3,1013
2019-06-17T04:43:00+09:00,2.1,�k�k��,3.3,�k,16.2,87.6,0,0,0,0,0,0,999.3,1013.1
2019-06-17T04:44:00+09:00,2,�k�k��,3.3,�k,16.3,87.9,0,0,0,0,0,0,999.3,1013
2019-06-17T04:45:00+09:00,2,�k�k��,3.3,�k,16.3,87.7,0,0,0,0,0,0,999.3,1013
2019-06-17T04:46:00+09:00,,,,,,,,,,,,,,
2019-06-17T04:47:00+09:00,1.9,�k�k��,3.3,�k,16.3,87.6,0,0,0,0,0,0,999.3,1013
2019-06-17T04:48:00+09:00,1.8,�k,3.3,�k,16.2,87.3,0,0,0,0,0,0,999.3,1013.1
2019-06-17T04:49:00+09:00,1.7,�k,3.3,�k,16.2,87.3,0,0,0,0,0,0,999.3,1013.1
2019-06-17T04:50:00+09:00,1.7,�k,3.3,�k,16.3,87.4,0,0,0,0,0,0,999.3,1013
2019-06-17T04:51:00+09:00,1.7,�k,3.3,�k�k��,16.2,86.7,0,0,0,0,0,0,999.3,1013.1
2019-06-17T04:52:00+09:00,1.7,�k,3.3,�k�k��,16.3,86.4,0,0,0,0,0,0,999.3,1013
2019-06-17T04:53:00+09:00,1.7,�k,3.3,�k�k��,16.4,86.2,0,0,0,0,0,0,999.3,1013
2019-06-17T04:54:00+09:00,1.7,�k,3.3,�k�k��,16.5,85.8,0,0,0,0,0,0,999.2,1012.9
2019-06-17T04:55:00+09:00,1.7,�k,3.2,�k�k��,16.4,84.7,0,0,0,0,0,0,999.2,1012.9
2019-06-17T04:56:00+09:00,1.6,�k,3.2,�k�k��,16.5,85.2,0,0,0,0,0,0,999.3,1013
2019-06-17T04:57:00+09:00,1.6,�k,3.2,�k�k��,16.5,86.3,0,0,0,0,0,0,999.3,1013
2019-06-17T04:58:00+09:00,1.7,�k,3.2,�k�k��,16.4,86.2,0,0,0,0,0,0,999.3,1013
2019-06-17T04:59:00+09:00,1.8,�k,3.2,�k�k��,16.3,86.3,0,0,0,0,0,0,999.3,1013
2019-06-17T05:00:00+09:00,1.9,�k�k��,3.2,�k�k��,16.3,87.3,0,0,0,0,0,0,999.3,1013
2019-06-17T05:01:00+09:00,1.9,�k�k��,3.2,�k�k��,16.4,88.2,0,0,0,0,0,0,999.3,1013
2019-06-17T05:02:00+09:00,1.9,�k�k��,3.2,�k�k��,16.5,88.6,0,0,0,0,0,0,999.3,1013
2019-06-17T05:03:00+09:00,1.9,�k�k��,3.2,�k�k��,16.5,88.3,0,0,0,0,0,0,999.3,1013
2019-06-17T05:04:00+09:00,2,�k�k��,3.3,�k�k��,16.4,88,0,0,0,0,0,0,999.3,1013
2019-06-17T05:05:00+09:00,2,�k�k��,3.4,�k�k��,16.3,87.9,0,0,0,0,0,0,999.3,1013
2019-06-17T05:06:00+09:00,2,�k�k��,3.4,�k�k��,16.4,88,0,0,0,0,0,0,999.3,1013
2019-06-17T05:07:00+09:00,2.1,�k�k��,3.4,�k�k��,16.3,87.9,0,0,0,0,0,0,999.4,1013.1
2019-06-17T05:08:00+09:00,2,�k�k��,3.4,�k�k��,16.2,87.1,0,0,0,0,0,0,999.4,1013.2
2019-06-17T05:09:00+09:00,1.9,�k�k��,3.4,�k�k��,16.3,87.4,0,0,0,0,0,0,999.4,1013.1
2019-06-17T05:10:00+09:00,2,�k,3.4,�k�k��,16.3,87.3,0,0,0,0,0,0,999.4,1013.1
2019-06-17T05:11:00+09:00,2,�k,3.4,�k�k��,16.3,86.7,0,0,0,0,0,0,999.4,1013.1